Location: Newark
(25.4297°S, 49.2719°W)
Time: 09:08:07
(UTC+00:00)

Vanguard 1 Rocket - Pass Details

Date: 22 November 2019
Orbit: 650 x 4226 km, 34.3° (Epoch: 10 December)

Event Time Altitude Azimuth Distance (km) Brightness Sun altitude
Rises 02:30:52 0° 260° (W) 7,141 12.2 -43.9°
Reaches altitude 10° 02:41:21 10° 288° (WNW) 5,004 11.0 -44.2°
Enters shadow 02:42:13 11° 291° (WNW) 4,860 10.9 -44.2°
Maximum altitude 02:44:39 11° 302° (WNW) 4,509 - -44.3°
Drops below altitude 10° 02:47:31 10° 316° (NW) 4,236 - -44.4°
Sets 02:53:48 0° 350° (N) 4,392 - -44.5°
